Location: El Águila
(10.4167°N, 66.7167°W)
Time: 04:38:58
(UTC+00:00)

CZ-4B R/B - Pass Details

Date: 02 October 2022
Orbit: 808 x 882 km, 99.0° (Epoch: 04 December)

Event Time Altitude Azimuth Distance (km) Brightness Sun altitude
Rises 23:43:21 0° 170° (S) 3,317 6.2 -22.1°
Reaches altitude 10° 23:45:40 10° 172° (S) 2,389 5.5 -22.7°
Maximum altitude 23:50:56 75° 257° (WSW) 842 3.2 -24.0°
Drops below altitude 10° 23:56:16 10° 343° (NNW) 2,418 5.8 -25.3°
Sets 23:58:38 0° 345° (NNW) 3,361 6.5 -25.9°
